Tracking 18980 objects as of 19-Feb-2018
HD Live streaming from Space Station
objects crossing your sky now

OPS 9343 (IDSCS 22)

Track OPS 9343 (IDSCS 22) now!
OPS 9343 (IDSCS 22) is classified as:


NORAD ID: 3286
Int'l Code: 1968-050C
Perigee: 33,756.9 km
Apogee: 33,878.6 km
Inclination: 1.6 °
Period: 1,336.3 minutes
Semi major axis: 40188 km
RCS: 0.2393 m2 (medium)
Launch date: June 13, 1968
Source: United States (US)
Launch site: AIR FORCE EASTERN TEST RANGE (AFETR)
aabbcc
Your satellite tracking list
Your tracking list is empty




NASA's NSSDC Master Catalog

Two Line Element Set (TLE):
1  3286U 68050C   18045.69840993 -.00000077 +00000-0 +00000-0 0  9999
2  3286 001.5612 044.4136 0015138 095.2573 219.0128 01.07757047014643
Source of the keplerian elements: AFSPC